Torna al catalogo

YAOGAN-33 03

AttivoMilitareSSO
NORAD 57797·PAYLOAD·🇨🇳 China

Lanciato Sep 6, 2023 da Jiuquan Satellite Launch Center

Loading…

Prossimi Passaggi (prossime 24 ore)

TLE

AggiornatoSource: Space-Track

Epoca: Sep 14, 2026, 15:18 UTC

1 57797U 23136A   26257.63801865  .00000289  00000-0  71715-4 0  9993
2 57797  98.1923 180.7392 0006405 270.8308  89.2158 14.58789051160976

Traccia YAOGAN-33 03 in tempo reale con AllMySat

Download on the App Store